Location: Marysville Observatory
(48.1092°N, 122.1645°W)
Time: 01:14:50
(UTC-07:00)

Daily predictions for brighter satellites

Satellite Brightness Start Highest point End
(mag) Time Altitude Azimuth Time Altitude Azimuth Time Altitude Azimuth
Cosmos 2034 Rocket 3.9 00:07:00 83° N 00:07:00 83° N 00:12:59 10° N
SL-16 R/B 3.1 00:06:25 36° W 00:07:57 44° NW 00:13:23 10° NNE
Cosmos 1844 4.2 00:09:28 10° NNW 00:14:37 54° NE 00:14:37 54° NE
Cosmos 371 Rocket 4.4 00:17:00 40° NW 00:17:00 40° NW 00:21:07 10° N
Cosmos 1844 Rocket 3.0 00:12:00 10° NNW 00:16:46 61° N 00:16:46 61° N
Lacrosse 4 Rocket 3.8 00:22:21 19° NE 00:22:21 19° NE 00:23:44 10° NE
Cosmos 1092 Rocket 4.0 00:13:15 10° N 00:19:17 75° NE 00:19:17 75° NE
USA 215 4.5 00:22:26 28° WSW 00:22:26 28° WSW 00:26:48 10° WNW
CZ-2C R/B 4.3 00:16:37 10° NE 00:19:40 24° ENE 00:19:40 24° ENE
Cosmos 2360 Rocket 2.5 00:24:57 63° N 00:24:57 63° N 00:29:50 10° NNE
Terra 4.0 00:24:45 17° W 00:24:45 17° W 00:27:23 10° NW
Cosmos 1634 Rocket 4.5 00:25:04 50° ENE 00:25:04 50° ENE 00:30:25 10° NNE
Nadezhda 4 Rocket 4.4 00:38:22 10° NNW 00:44:09 54° W 00:44:09 54° W
Cosmos 2219 Rocket 3.4 00:47:14 32° ENE 00:47:14 32° ENE 00:50:31 10° NE
Cosmos 2263 Rocket 4.3 00:44:32 10° WNW 00:46:55 16° W 00:46:55 16° W
Cosmos 1680 Rocket 4.4 00:51:15 45° NNE 00:51:15 45° NNE 00:54:53 10° NNE
CZ-4B R/B 4.5 00:53:29 16° NNW 00:53:29 16° NNW 00:54:18 10° NNW
ALOS 2 4.4 00:52:50 29° NNW 00:52:50 29° NNW 00:55:04 10° NNW
Cosmos 2322 Rocket 4.3 00:53:21 14° W 00:56:41 22° NW 01:01:02 10° N
ATLAS CENTAUR R/B 4.5 00:53:34 51° SW 00:57:08 82° SE 01:26:43 10° NE
Cosmos 2322 4.5 00:57:48 46° NW 00:57:48 46° NW 01:03:17 10° NNE
SL-16 R/B 4.3 01:00:59 16° ENE 01:00:59 16° ENE 01:03:03 10° ENE
COSMOS 2455 4.0 01:02:12 34° ENE 01:02:12 34° ENE 01:05:56 10° NE
Cosmos 2333 Rocket 3.3 01:03:45 36° ENE 01:03:45 36° ENE 01:07:29 10° NE
Cosmos 2297 4.5 00:57:05 10° NNW 01:02:25 46° NE 01:02:25 46° NE
Cosmos 2237 Rocket 3.5 01:05:11 32° ENE 01:05:11 32° ENE 01:08:40 10° NE
Cosmos 1818 4.3 01:02:59 10° NNW 01:07:37 50° NNE 01:07:37 50° NNE
Cosmos 2026 Rocket 4.1 01:04:55 10° NNW 01:10:13 66° NNW 01:10:13 66° NNW
COSMOS 2428 3.2 01:19:03 55° NNW 01:19:03 55° NNW 01:23:58 10° NNE
Cosmos 2056 Rocket 4.5 01:16:38 10° NNW 01:20:11 43° NNW 01:20:11 43° NNW
Cosmos 2278 Rocket 3.1 01:29:18 10° NNW 01:33:01 40° NW 01:33:01 40° NW
NOSS 0 Rocket 4.1 01:40:14 68° NE 01:40:14 68° NE 01:45:36 10° NNE
Cosmos 1655 Rocket 4.5 01:33:24 10° NNW 01:38:46 51° WNW 01:38:46 51° WNW
ATLAS 3B R/B 2.8 01:43:21 72° ESE 01:43:21 72° ESE 01:50:36 10° NE
BREEZE-M DEB (TANK) 4.5 01:29:57 10° W 01:50:59 87° N 01:52:41 50° E
Lacrosse 4 Rocket 3.7 01:58:41 21° NW 01:58:41 21° NW 02:01:57 10° N
CZ-2C R/B 4.4 02:01:12 30° NW 02:01:12 30° NW 02:03:58 10° NNW
CZ-2C R/B 3.3 01:56:28 10° N 02:01:11 49° NW 02:01:11 49° NW
Cosmos 2360 Rocket 4.4 02:06:41 14° WNW 02:09:10 18° NW 02:13:00 10° N
Cosmos 2228 Rocket 4.3 02:12:59 41° NNE 02:12:59 41° NNE 02:16:03 10° NNE
Cosmos 1867 4.3 02:18:48 45° E 02:18:48 45° E 02:23:02 10° NE
CZ-4C R/B 3.0 02:19:03 42° E 02:19:03 42° E 02:23:52 10° NE
Cosmos 2369 Rocket 3.8 02:13:17 10° NNW 02:18:13 31° NE 02:23:07 10° ESE
ATLAS CENTAUR R/B 3.1 02:17:45 10° NNW 02:21:53 32° NE 02:22:22 31° NE
Cosmos 1932 4.3 02:23:42 85° ENE 02:23:42 85° ENE 02:29:55 10° NE
Nadezhda 2 Rocket 4.4 02:17:39 10° N 02:24:07 89° WSW 02:24:09 88° SW
Cosmos 2219 Rocket 3.2 02:28:57 34° WNW 02:29:16 34° NW 02:34:25 10° NNE
SL-08 R/B 3.9 02:34:47 53° NE 02:34:47 53° NE 02:38:52 10° N
USA 238 DEB 3.6 02:36:23 71° S 02:37:00 76° SE 02:44:04 10° NE
USA 238 3.6 02:36:31 71° SSE 02:37:07 75° SE 02:44:09 10° NE
Resurs 1-4 Rocket 4.4 02:34:30 10° NE 02:37:32 15° E 02:39:45 12° ESE
Exosat Rocket 4.2 02:33:44 10° NNW 02:37:31 50° NW 02:37:31 50° NW
Cosmos 1943 Rocket 4.4 02:36:13 10° N 02:40:43 23° NE 02:45:11 10° E
Cosmos 2221 4.5 02:42:23 22° NW 02:42:23 22° NW 02:44:42 10° NNW
Aureole 2 Rocket 4.2 02:42:35 38° N 02:42:35 38° N 02:45:20 10° NNE
SL-16 R/B 3.9 02:37:14 12° ESE 02:42:16 36° ENE 02:47:50 10° N
SL-16 R/B 2.2 02:42:52 77° NW 02:42:52 77° NW 02:48:25 10° NNE
COSMOS 2455 3.6 02:45:20 40° WNW 02:46:14 42° NW 02:51:58 10° NNE
Cosmos 2333 Rocket 3.3 02:45:45 34° WNW 02:46:25 35° NW 02:51:41 10° NNE
Cosmos 1244 Rocket 4.3 02:40:39 10° N 02:46:59 81° W 02:47:21 77° SW
Cosmos 2237 Rocket 3.1 02:47:00 37° WNW 02:47:27 38° NW 02:52:45 10° NNE
Cosmos 1340 Rocket 4.2 02:45:28 10° N 02:48:25 38° NE 02:48:25 38° NE
NOSS 3-2 (A) 4.0 02:52:00 43° SE 02:52:35 44° ESE 02:58:50 10° NE
AQUA 4.4 02:48:57 10° NNE 02:53:26 51° E 02:53:26 51° E
Centaur D-1A AC-31 4.5 02:12:24 10° SW 02:58:23 24° SSE 03:02:07 10° SE
Cosmos 1553 Rocket 4.2 02:53:22 52° SE 02:54:32 61° E 03:00:33 10° NNE
Cosmos 1745 Rocket 4.2 02:48:31 10° N 02:54:53 67° ENE 02:56:47 46° SE
NOSS 3-3 (A) 4.3 02:52:23 10° NW 02:59:45 89° SW 03:07:40 10° SE
NOSS 3-3 (C) 4.3 02:52:29 10° NW 02:59:51 89° SW 03:07:46 10° SE
CBERS-1 4.1 02:56:59 10° NNE 03:02:05 64° ESE 03:02:17 63° ESE
SL-08 R/B 4.3 02:58:13 10° N 03:04:21 88° ENE 03:05:24 64° SSE
Meteor 2-2 Rocket 4.2 03:06:33 73° SW 03:07:07 82° W 03:13:03 10° N
Cosmos 1417 Rocket 4.4 03:06:07 66° SSW 03:07:08 86° W 03:13:33 10° N
NOSS 3-2 (C) 4.0 03:08:25 42° SSE 03:09:33 47° ESE 03:15:55 10° NE
BREEZE-M DEB (TANK) 3.8 03:12:38 46° ESE 03:12:38 46° ESE 03:16:31 10° ESE
Cosmos 1151 Rocket 3.4 03:15:52 57° NNW 03:15:52 57° NNW 03:19:33 10° N
ATLAS 5 CENTAUR R/B 3.9 03:15:02 16° SE 03:16:11 17° ESE 03:19:28 10° ENE
Cosmos 1607 4.1 03:18:40 52° W 03:19:55 63° NW 03:26:03 10° NE
Cosmos 1603 3.6 03:24:29 66° SSW 03:25:22 88° WNW 03:31:09 10° NNE
IRS-1C 4.1 03:20:44 10° NNE 03:26:06 83° ESE 03:27:02 62° S
In-Cosmos 22 Rocket 4.0 03:21:47 10° N 03:27:08 87° E 03:28:20 55° SSE
Cosmos 1892 4.0 03:24:56 10° N 03:28:34 38° ENE 03:29:31 32° ESE
ATLAS 3B R/B 3.8 03:30:35 24° W 03:34:31 41° NNW 03:41:21 10° NE
Okean O Rocket 4.3 03:34:45 10° NE 03:37:27 16° E 03:40:08 10° SE
Cosmos 1726 2.4 03:39:47 66° N 03:39:47 66° N 03:43:02 10° N
Cosmos 839 Rocket 4.4 03:31:51 10° NW 03:40:19 67° WSW 03:46:11 14° SSE
Cosmos 1048 Rocket 4.4 03:39:36 46° W 03:40:22 50° WNW 03:45:36 10° NNE
Meteor 2-3 Rocket 3.7 03:36:19 10° NNW 03:42:07 84° W 03:44:29 38° S
Cosmos 1302 Rocket 4.1 03:37:59 10° NNW 03:43:16 74° ENE 03:47:53 13° SSE
CZ-2D R/B 2.7 03:38:59 10° NNE 03:44:09 52° E 03:46:36 29° SSE
BREEZE-M DEB (TANK) 3.0 03:43:24 45° WNW 03:44:33 69° NNW 03:49:54 10° ENE
Cosmos 2292 Rocket 3.8 03:41:47 10° N 03:44:29 43° ENE 03:44:29 43° ENE
IRS-1D 3.7 03:44:19 10° NNE 03:49:30 69° ESE 03:51:38 36° S
Spot 4 Rocket 3.9 03:44:19 10° NNE 03:49:31 85° WNW 03:50:56 50° SSW
Cosmos 1300 3.1 03:50:14 52° NW 03:50:14 52° NW 03:53:35 10° N
Cosmos 1356 Rocket 3.7 03:46:31 10° NNW 03:49:50 49° WNW 03:49:50 49° WNW
Cosmos 1184 Rocket 4.4 03:50:43 10° N 03:53:55 35° ENE 03:56:00 18° SE
Cosmos 1943 3.3 03:53:04 40° S 03:55:08 74° ESE 04:00:48 10° NNE
Cosmos 2315 Rocket 4.3 03:52:37 23° S 03:56:35 67° E 04:02:50 10° NNE
Cosmos 1331 Rocket 4.1 03:52:55 10° NNW 03:58:03 53° WSW 03:58:57 47° SW
ARIANE 5 R/B 2.5 03:53:43 10° NNE 03:58:59 86° ESE 04:01:04 38° SSW
ADEOS 3.6 03:54:07 10° N 03:59:19 66° WNW 04:00:49 45° SW
ERBS 3.2 03:59:50 41° NW 04:00:04 42° NNW 04:03:28 10° NE
ATLAS CENTAUR R/B 3.2 03:56:55 10° NW 03:58:34 21° WNW 03:58:34 21° WNW
NPP 4.3 03:57:33 10° N 04:02:31 38° WNW 04:03:47 33° W
Cosmos 2369 Rocket 2.2 03:57:05 10° NW 04:02:33 54° WSW 04:04:45 34° SSW
Cosmos 1455 3.0 04:01:16 30° SSE 04:02:46 48° E 04:06:34 10° NNE
Cosmos 1869 Rocket 4.3 04:00:51 10° NNW 04:04:34 36° W 04:04:34 36° W
Meteor 1-4 Rocket 4.0 04:07:02 24° NW 04:07:02 24° NW 04:09:18 10° NNW
CZ-4C R/B 3.0 04:04:14 28° W 04:06:44 44° NW 04:12:47 10° NE
Coronas F rocket 4.1 04:06:50 10° NNW 04:07:02 11° NNW 04:07:02 11° NNW
SeaSat 1 2.6 04:05:12 10° SE 04:10:06 73° ENE 04:15:03 10° NNW
Cosmos 1271 Rocket 3.8 04:12:46 32° WNW 04:12:47 32° WNW 04:16:27 10° N
Cosmos 2242 Rocket 3.6 04:14:19 39° SSW 04:16:00 78° W 04:20:36 10° N
Resurs 1-4 Rocket 2.0 04:12:45 10° NNE 04:18:02 83° WNW 04:20:51 29° SSW
USA 234 3.3 04:12:18 10° ENE 04:18:53 73° SE 04:22:38 28° SW
Cosmos 1862 Rocket 4.0 04:18:09 20° S 04:21:02 60° E 04:25:23 10° NNE
CZ-2C R/B 4.1 04:20:04 10° SSE 04:24:26 61° ENE 04:28:50 10° N
Cosmos 1943 Rocket 2.1 04:19:26 10° NNW 04:25:09 79° WSW 04:30:47 10° SSE
SL-16 R/B 2.8 04:22:20 24° SSW 04:25:46 47° W 04:31:44 10° NNW
ERS-2 2.8 04:23:36 10° N 04:27:05 38° WNW 04:27:39 36° W
Cosmos 1408 3.9 04:23:59 10° N 04:27:34 41° ENE 04:31:08 10° SSE
SL-16 R/B 4.1 04:24:44 13° WNW 04:27:47 19° NW 04:31:45 10° N
ADEOS II 4.5 04:27:54 10° NE 04:31:50 21° E 04:35:46 10° SE
Cosmos 1825 2.9 04:32:02 10° N 04:35:47 53° ENE 04:39:28 10° SSE
Thor Agena Rocket 4.3 04:31:45 10° SE 04:36:46 56° ENE 04:41:54 10° N
SL-27 R/B 3.7 04:34:22 15° S 04:37:03 39° ESE 04:40:28 10° NE
Abrixas rocket 2.1 04:37:02 34° W 04:38:21 90° NW 04:41:43 10° E
Cosmos 1992 Rocket 4.3 04:33:18 10° NNW 04:38:34 72° ENE 04:43:47 10° SSE
Cosmos 2251 Rocket 4.1 04:36:49 26° WSW 04:39:13 41° WNW 04:44:13 10° NNE
Cosmos 1709 Rocket 4.3 04:35:50 10° NNW 04:41:50 45° W 04:46:35 16° SSW
Cosmos 1733 Rocket 3.2 04:38:55 10° NNW 04:43:10 50° W 04:46:14 18° SSW
NOSS 3-2 (A) 4.1 04:39:24 21° WSW 04:43:25 50° NW 04:50:07 10° NE
MOZ.5/SAFIR/RUBIN 5/SL-8 3.6 04:42:54 10° S 04:47:32 77° WSW 04:52:12 10° NNW
ARGOS Delta rocket 3.5 04:46:19 10° N 04:50:45 82° WNW 04:54:33 14° SSW
Cosmos 1862 3.3 04:46:53 10° N 04:50:52 87° ENE 04:54:51 10° S
IRS-1C Rocket 4.2 04:46:10 10° NNE 04:51:29 79° ESE 04:56:45 10° SSW
Cosmos 1782 Rocket 4.3 04:47:13 10° N 04:51:30 56° ENE 04:55:46 10° SSE
MTI 4.4 04:52:10 27° SW 04:53:21 36° W 04:56:29 10° NNW
UNKNOWN OBJECT B 3.1 04:49:52 10° N 04:53:26 44° WNW 04:55:16 24° SW
EO 1 Del DPAF 4.2 04:53:59 24° SW 04:55:04 28° W 04:58:28 10° NW
Cosmos 1656 Rocket 3.6 04:50:50 10° NNW 04:56:18 90° ENE 05:01:43 10° SSE
CENTAUR R/B 2.8 04:53:41 14° SSW 04:59:06 69° SE 05:06:05 10° NE
ATLAS 5 CENTAUR R/B 1.9 04:56:36 20° SW 05:00:06 82° NW 05:05:30 10° NE
NOSS 3-2 (C) 4.1 04:55:51 18° WSW 05:00:30 48° NW 05:07:13 10° NE
Cosmos 1892 4.2 05:01:25 10° NW 05:04:05 18° W 05:04:33 18° W
Cosmos 1869 3.7 05:01:30 19° SW 05:04:05 45° WNW 05:07:56 10° N
Cosmos 2074 Rocket 4.0 04:58:04 10° NNW 05:04:14 66° W 05:10:23 10° S
Cosmos 2327 Rocket 4.4 05:00:23 10° NNW 05:06:25 65° W 05:12:29 10° S
Cosmos 2154 Rocket 4.4 05:00:43 10° N 05:07:02 71° E 05:13:22 10° SSE
CZ-4B R/B 2.8 05:03:37 10° NNE 05:07:16 78° ESE 05:11:01 10° S
Cosmos 2184 Rocket 4.1 05:02:05 10° NNW 05:08:25 65° W 05:14:41 10° S
Cosmos 1933 3.3 05:07:54 10° SSW 05:12:01 78° W 05:16:09 10° N
Cosmos 1908 Rocket 3.6 05:07:45 10° NNW 05:12:04 55° W 05:16:19 10° S
CZ-2D R/B 4.1 05:08:49 10° N 05:13:00 42° WNW 05:16:29 13° SW
Okean O Rocket 1.7 05:09:49 10° N 05:14:16 64° WNW 05:18:40 10° SSW
BREEZE-M DEB (TANK) 3.1 05:10:02 11° W 05:15:55 50° NNW 05:18:41 10° ENE
Okean-O 3.5 05:15:16 10° NNE 05:19:37 51° E 05:23:56 10° S
Cosmos 2221 Rocket 3.6 05:15:16 10° S 05:19:42 87° E 05:24:09 10° N
CZ-2D R/B 3.3 05:19:37 10° N 05:23:56 26° WNW 05:27:55 11° WSW
Cosmos 389 Rocket 3.4 05:25:42 12° SW 05:28:24 30° WNW 05:31:34 10° N
Cosmos 2341 Rocket 4.2 05:22:09 10° N 05:28:28 79° E 05:34:48 10° SSE
Cosmos 407 Rocket 4.2 05:24:18 10° S 05:29:23 56° ESE 05:34:34 10° NNE
Sich 1 Rocket 4.4 05:26:13 10° NNW 05:30:03 30° W 05:33:53 10° SSW
USA 129 0.7 05:29:21 11° S 05:30:32 46° W 05:31:58 10° NNW
Cosmos 1703 Rocket 3.7 05:29:01 10° SSW 05:33:26 62° WNW 05:37:55 10° N
Meteor PRIRODA 4.4 05:32:19 10° NNE 05:36:03 58° E 05:39:46 10° S
ARIANE 5 R/B 4.3 05:34:09 10° NNW 05:37:26 17° NW 05:40:43 10° W
Cosmos 1455 4.1 05:36:22 10° WSW 05:38:49 16° WNW 05:41:17 10° NNW
Cosmos 2285 Rocket 4.4 05:33:18 10° NW 05:39:15 41° WSW 05:45:09 10° S
COSMOS 2406 3.3 05:34:23 10° SW 05:40:09 72° WNW 05:45:56 10° NNE
Cosmos 2151 Rocket 3.9 05:38:34 10° N 05:42:59 71° E 05:47:22 10° SSE
Cosmos 2369 4.5 05:37:35 10° NNW 05:43:17 60° ENE 05:48:56 10° SE
CZ-4B DEB 4.5 05:42:46 10° N 05:48:05 52° WNW 05:53:22 10° SW
SeaSat 1 3.7 05:44:40 10° SSW 05:48:06 19° WSW 05:51:33 10° WNW
CZ-4B R/B 3.5 05:44:15 10° N 05:49:18 47° WNW 05:54:21 10° SW
PSLV R/B 3.6 05:45:36 10° N 05:49:58 71° WNW 05:54:21 10° SSW
COSMOS 2487 2.7 05:46:43 10° SSW 05:50:18 75° ESE 05:53:56 10° NNE
Geosat 4.1 05:46:18 10° NNE 05:51:22 85° ESE 05:56:24 10° SSW
